Location: Launay
(47.2429°N, 1.5727°E)
Time: 21:20:22
(UTC+00:00)

USA 245 - Pass Details

Date: 19 May 2025
Orbit: 292 x 1030 km, 97.9° (Epoch: 02 June)

Event Time Altitude Azimuth Distance (km) Brightness Sun altitude
Exits shadow 20:37:31 13° 148° (SSE) 1,792 5.3 -10.1°
Maximum altitude 20:41:19 59° 70° (ENE) 820 4.0 -10.5°
Drops below altitude 10° 20:46:37 10° 353° (N) 2,440 7.5 -11.1°
Sets 20:49:16 0° 350° (N) 3,488 8.5 -11.5°
